This is the latest recevied weather packets stored in our database for station/object KR8N. If no packets are shown the sender has not sent any weather packets the latest 10 day(s).
| Time | Temp. | Humidity | Pressure | Rain* | Wind** | Luminosity | Snow |
|---|---|---|---|---|---|---|---|
| 1777864468 | 8.33° C | 63% | 1019.1 hPa | 0 mm | - | 0 W/m² | - |
| 1777864165 | 8.33° C | 64% | 1018.9 hPa | 0 mm | - | 0 W/m² | - |
| 1777863862 | 8.33° C | 65% | 1018.8 hPa | 0 mm | - | 0 W/m² | - |
| 1777863558 | 8.33° C | 63% | 1018.7 hPa | 0 mm | - | 0 W/m² | - |
| 1777863255 | 8.33° C | 63% | 1019.1 hPa | 0 mm | - | 0 W/m² | - |
| 1777862952 | 8.33° C | 64% | 1018.8 hPa | 0 mm | - | 0 W/m² | - |
| 1777862649 | 8.33° C | 59% | 1018.9 hPa | 0 mm | - | 0 W/m² | - |
| 1777862346 | 7.78° C | 63% | 1018.9 hPa | 0 mm | - | 0 W/m² | - |
| 1777862042 | 8.33° C | 61% | 1019 hPa | 0 mm | - | 0 W/m² | - |
| 1777861737 | 8.33° C | 59% | 1019.1 hPa | 0 mm | - | 0 W/m² | - |
| 1777861434 | 7.78° C | 58% | 1018.9 hPa | 0 mm | - | 0 W/m² | - |
| 1777861131 | 7.78° C | 57% | 1018.9 hPa | 0 mm | - | 0 W/m² | - |
| 1777860828 | 7.22° C | 59% | 1019.1 hPa | 0 mm | - | 0 W/m² | - |
| 1777860525 | 7.22° C | 58% | 1019 hPa | 0 mm | - | 0 W/m² | - |
| 1777860222 | 7.22° C | 59% | 1018.8 hPa | 0 mm | - | 0 W/m² | - |
| 1777859918 | 7.22° C | 60% | 1019.2 hPa | 0 mm | - | 0 W/m² | - |
| 1777859614 | 6.67° C | 58% | 1019 hPa | 0 mm | - | 0 W/m² | - |
| 1777859311 | 6.67° C | 60% | 1019 hPa | 0 mm | - | 0 W/m² | - |
| 1777859006 | 7.22° C | 63% | 1018.8 hPa | 0 mm | - | 0 W/m² | - |
| 1777858705 | 7.22° C | 58% | 1019 hPa | 0 mm | - | 0 W/m² | - |
| 1777858402 | 7.78° C | 55% | 1018.7 hPa | 0 mm | - | 0 W/m² | - |
| 1777858099 | 7.78° C | 51% | 1018.6 hPa | 0 mm | - | 0 W/m² | - |
| 1777857797 | 8.33° C | 50% | 1018.7 hPa | 0 mm | - | 0 W/m² | - |
| 1777857494 | 8.33° C | 50% | 1018.7 hPa | 0 mm | - | 0 W/m² | - |
| 1777857190 | 8.33° C | 49% | 1018.5 hPa | 0 mm | - | 0 W/m² | - |
* Rain latest hour (hover to see other rain measurements)
** Current wind speed in m/s (hover to see current wind gust speed)